Tacoma Narrows, WA
on Wednesday, January 2, 2013

Wednesday
Previous Day Next Day
Daily Summary
 ActualAverageRecord
Temperature
Mean Temperature °F °F  
Max Temperature 39°F 43°F 55°F (2003)
Min Temperature 30°F 36°F 27°F (2011)
Degree Days
Heating Degree Days 30    
Moisture
Dew Point 30°F   
Average Humidity 90    
Maximum Humidity 100    
Minimum Humidity 73    
Precipitation
Precipitation 0.00 in in in ()
Wind
Wind Speed 0 mph   
Max Wind Speed 4 mph   
Max Gust Speed mph   
Visibility 3 miles   
Events Fog   
Averages and records for this station are not official NWS values.
Key: T is trace of precipitation, MM is missing value
Source: NWS Daily Summary
Seasonal Weather Averages
Time(PST)TemperatureDew PointHumidity Pressure Visibility Wind DirectionWind SpeedGust SpeedPrecipitationEvents Conditions
12:03 AM 32.0°F 30.2°F 93% 30.34 in 2.0 miles Calm Calm - N/A   Clear
12:14 AM 33.8°F 30.2°F 87% 30.34 in 5.0 miles Calm Calm - N/A   Clear
12:20 AM 30.2°F 28.4°F 93% 30.34 in 1.5 miles Calm Calm - N/A   Clear
12:29 AM 30.2°F 28.4°F 93% 30.34 in 0.5 miles Calm Calm - N/A Fog Light Freezing Fog
12:48 AM 30.2°F 28.4°F 93% 30.34 in 0.5 miles Calm Calm - N/A Fog Light Freezing Fog
12:53 AM 32.0°F 28.9°F 88% 30.35 in 0.5 miles Calm Calm - N/A Fog Fog
1:02 AM 33.8°F 30.2°F 87% 30.33 in 1.2 miles Calm Calm - N/A   Scattered Clouds
1:05 AM 33.8°F 30.2°F 87% 30.33 in 3.0 miles Calm Calm - N/A   Scattered Clouds
1:53 AM 35.1°F 32.0°F 89% 30.33 in 8.0 miles Calm Calm - N/A   Clear
2:05 AM 32.0°F 30.2°F 93% 30.32 in 0.8 miles Calm Calm - N/A   Mist
2:13 AM 32.0°F 30.2°F 93% 30.32 in 0.2 miles Calm Calm - N/A Fog Fog
2:46 AM 32.0°F 30.2°F 93% 30.31 in 0.5 miles Calm Calm - N/A Fog Fog
2:53 AM 32.0°F 30.9°F 96% 30.32 in 0.5 miles Calm Calm - N/A Fog Fog
3:05 AM 30.2°F 30.2°F 100% 30.31 in 0.2 miles Calm Calm - N/A Fog Light Freezing Fog
3:23 AM 32.0°F 30.2°F 93% 30.31 in 0.5 miles Calm Calm - N/A Fog Fog
3:44 AM 32.0°F 30.2°F 93% 30.30 in 0.2 miles Calm Calm - N/A Fog Fog
3:53 AM 30.9°F 30.0°F 96% 30.31 in 0.2 miles Calm Calm - N/A Fog Light Freezing Fog
4:09 AM 30.2°F 28.4°F 93% 30.29 in 0.5 miles Calm Calm - N/A Fog Light Freezing Fog
4:17 AM 30.2°F 28.4°F 93% 30.29 in 0.2 miles Calm Calm - N/A Fog Light Freezing Fog
4:27 AM 32.0°F 30.2°F 93% 30.29 in 0.5 miles Calm Calm - N/A Fog Fog
4:53 AM 30.0°F 28.0°F 92% 30.30 in 0.2 miles Calm Calm - N/A Fog Light Freezing Fog
5:07 AM 30.2°F 28.4°F 93% 30.29 in 0.5 miles Calm Calm - N/A Fog Light Freezing Fog
5:23 AM 32.0°F 30.2°F 93% 30.28 in 1.2 miles Calm Calm - N/A   Partly Cloudy
5:26 AM 32.0°F 30.2°F 93% 30.28 in 4.0 miles Calm Calm - N/A   Partly Cloudy
5:40 AM 30.2°F 28.4°F 93% 30.28 in 1.5 miles Calm Calm - N/A   Partly Cloudy
5:42 AM 30.2°F 28.4°F 93% 30.28 in 0.8 miles Calm Calm - N/A   Mist
5:53 AM 32.0°F 30.0°F 92% 30.30 in 1.2 miles Calm Calm - N/A   Scattered Clouds
5:58 AM 30.2°F 28.4°F 93% 30.29 in 0.8 miles Calm Calm - N/A   Mist
6:16 AM 32.0°F 30.2°F 93% 30.28 in 1.2 miles Calm Calm - N/A   Partly Cloudy
6:23 AM 30.2°F 28.4°F 93% 30.29 in 0.8 miles Calm Calm - N/A   Mist
6:42 AM 32.0°F 28.4°F 87% 30.28 in 0.2 miles Calm Calm - N/A Fog Fog
6:49 AM 33.8°F 30.2°F 87% 30.28 in 0.2 miles Calm Calm - N/A Fog Fog
6:53 AM 33.8°F 30.2°F 87% 30.28 in 0.2 miles Calm Calm - N/A Fog Fog
7:46 AM 33.8°F 32.0°F 93% 30.28 in 0.8 miles Calm Calm - N/A   Mist
7:53 AM 34.0°F 32.0°F 92% 30.30 in 0.5 miles SW 3.5 mph - N/A Fog Fog
8:53 AM 33.1°F 32.0°F 96% 30.31 in 0.5 miles Calm Calm - N/A Fog Fog
9:14 AM 33.8°F 30.2°F 87% 30.30 in 1.5 miles SSW 3.5 mph - N/A   Overcast
9:53 AM 34.0°F 32.0°F 92% 30.32 in 1.5 miles Calm Calm - N/A   Scattered Clouds
10:00 AM 33.8°F 30.2°F 87% 30.31 in 7.0 miles Calm Calm - N/A   Partly Cloudy
10:01 AM 33.8°F 30.2°F 87% 30.31 in 2.0 miles Calm Calm - N/A   Mostly Cloudy
10:53 AM 35.1°F 33.1°F 92% 30.32 in 2.0 miles Calm Calm - N/A   Mostly Cloudy
11:53 AM 36.0°F 34.0°F 93% 30.31 in 2.0 miles West 3.5 mph - N/A   Mostly Cloudy
12:00 PM 35.6°F 33.8°F 93% 30.29 in 6.0 miles West 3.5 mph - N/A   Overcast
12:53 PM 36.0°F 34.0°F 93% 30.29 in 5.0 miles Calm Calm - N/A   Mostly Cloudy
1:07 PM 35.6°F 33.8°F 93% 30.27 in 6.0 miles Calm Calm - N/A   Scattered Clouds
1:53 PM 39.0°F 34.0°F 82% 30.27 in 10.0 miles Calm Calm - N/A   Clear
2:53 PM 39.9°F 33.1°F 77% 30.27 in 10.0 miles Variable 3.5 mph - N/A   Clear
3:53 PM 39.9°F 32.0°F 73% 30.26 in 10.0 miles Calm Calm - N/A   Clear
4:53 PM 36.0°F 30.9°F 82% 30.25 in 10.0 miles Calm Calm - N/A   Clear
5:53 PM 35.1°F 30.9°F 85% 30.25 in 10.0 miles Calm Calm - N/A   Clear
6:53 PM 34.0°F 30.0°F 85% 30.24 in 10.0 miles Calm Calm - N/A   Clear
7:53 PM 33.1°F 28.9°F 85% 30.23 in 9.0 miles Calm Calm - N/A   Clear
8:53 PM 33.1°F 30.9°F 92% 30.22 in 4.0 miles Calm Calm - N/A   Clear
8:57 PM 32.0°F 30.2°F 93% 30.21 in 1.0 miles Calm Calm - N/A   Mist
9:01 PM 30.2°F 28.4°F 93% 30.21 in 0.2 miles Calm Calm - N/A Fog Light Freezing Fog
9:18 PM 32.0°F 30.2°F 93% 30.20 in 1.0 miles North 3.5 mph - N/A   Mist
9:21 PM 33.8°F 30.2°F 87% 30.20 in 2.5 miles North 3.5 mph - N/A   Partly Cloudy
9:28 PM 32.0°F 30.2°F 93% 30.20 in 9.0 miles NNE 3.5 mph - N/A   Partly Cloudy
9:53 PM 33.1°F 30.0°F 89% 30.22 in 10.0 miles Calm Calm - N/A   Clear
10:53 PM 34.0°F 30.0°F 85% 30.20 in 10.0 miles Calm Calm - N/A   Clear
11:31 PM 33.8°F 30.2°F 87% 30.19 in 1.8 miles Calm Calm - N/A   Clear
11:33 PM 33.8°F 30.2°F 87% 30.19 in 1.0 miles Calm Calm - N/A   Mist
11:40 PM 33.8°F 30.2°F 87% 30.19 in 0.8 miles Calm Calm - N/A   Mist
11:44 PM 33.8°F 30.2°F 87% 30.19 in 2.0 miles Calm Calm - N/A   Clear
11:48 PM 32.0°F 30.2°F 93% 30.18 in 1.0 miles Calm Calm - N/A   Mist
11:53 PM 30.2°F 30.2°F 100% 30.18 in 0.5 miles Calm Calm - N/A Fog Light Freezing Fog
Moon Phase
Jan. 02 Jan. 04 Jan. 11 Jan. 18 Jan. 26
Sunrise:07:57 AM (PST) Moon Rise:10:35 PM (PST)1/2
Sunset:04:32 PM (PST) Moon Set:10:18 AM (PST)1/2

Copyright © 2014 The Weather Underground, Inc.